TimeCDT,TemperatureF,Dew PointF,Humidity,Sea Level PressureIn,VisibilityMPH,Wind Direction,Wind SpeedMPH,Gust SpeedMPH,PrecipitationIn,Events,Conditions,WindDirDegrees,DateUTC
12:53 AM,41.0,28.9,62,30.25,10.0,South,4.6,-,N/A,,Clear,170,2012-10-08 05:53:00
1:53 AM,35.1,28.9,78,30.25,10.0,South,5.8,-,N/A,,Clear,190,2012-10-08 06:53:00
2:53 AM,34.0,28.0,79,30.25,10.0,South,4.6,-,N/A,,Clear,180,2012-10-08 07:53:00
3:53 AM,34.0,28.9,82,30.24,10.0,North,-9999.0,-,N/A,,Clear,0,2012-10-08 08:53:00
4:53 AM,33.1,28.9,85,30.22,10.0,SW,8.1,-,N/A,,Clear,230,2012-10-08 09:53:00
5:53 AM,32.0,28.0,85,30.22,10.0,SW,8.1,-,N/A,,Clear,230,2012-10-08 10:53:00
6:53 AM,34.0,28.9,82,30.22,10.0,SW,8.1,-,N/A,,Clear,220,2012-10-08 11:53:00
7:53 AM,34.0,30.0,85,30.22,10.0,SSW,10.4,-,N/A,,Clear,200,2012-10-08 12:53:00
8:53 AM,39.9,33.1,77,30.22,10.0,SSW,8.1,-,N/A,,Clear,210,2012-10-08 13:53:00
9:53 AM,48.0,35.1,61,30.22,10.0,SW,11.5,-,N/A,,Clear,220,2012-10-08 14:53:00
10:53 AM,52.0,35.1,53,30.21,10.0,SW,10.4,19.6,N/A,,Clear,220,2012-10-08 15:53:00
11:53 AM,57.0,32.0,39,30.18,10.0,SW,16.1,-,N/A,,Clear,220,2012-10-08 16:53:00
12:53 PM,59.0,33.1,38,30.15,10.0,SSW,16.1,24.2,N/A,,Clear,210,2012-10-08 17:53:00
1:53 PM,61.0,32.0,34,30.12,10.0,SSW,15.0,25.3,N/A,,Clear,200,2012-10-08 18:53:00
2:53 PM,63.0,33.1,33,30.08,10.0,SSW,17.3,25.3,N/A,,Clear,200,2012-10-08 19:53:00
3:53 PM,64.0,33.1,31,30.04,10.0,SSW,17.3,25.3,N/A,,Clear,200,2012-10-08 20:53:00
4:53 PM,63.0,33.1,33,30.01,10.0,South,20.7,26.5,N/A,,Clear,190,2012-10-08 21:53:00
5:53 PM,62.1,35.1,37,30.01,10.0,South,13.8,23.0,N/A,,Clear,190,2012-10-08 22:53:00
6:53 PM,59.0,36.0,42,30.02,10.0,SSW,10.4,-,N/A,,Clear,200,2012-10-08 23:53:00
7:53 PM,53.1,36.0,52,30.02,10.0,SSE,10.4,-,N/A,,Clear,160,2012-10-09 00:53:00
8:53 PM,54.0,36.0,51,30.02,10.0,SSE,9.2,-,N/A,,Clear,150,2012-10-09 01:53:00
9:53 PM,55.0,37.9,53,30.01,10.0,South,16.1,-,N/A,,Clear,170,2012-10-09 02:53:00
10:53 PM,54.0,39.0,57,30.01,10.0,South,15.0,-,N/A,,Clear,180,2012-10-09 03:53:00
11:53 PM,51.8,39.2,62,30.00,10.0,South,16.1,-,N/A,,Clear,180,2012-10-09 04:53:00